Location: Newark
(45.7425°N, 0.7617°W)
Time: 04:07:33
(UTC+00:00)

FALCONSAT 3 - Visible Passes

Search period start: 02 April 2020 00:00
Search period end: 12 April 2020 00:00
Orbit: 451 x 456 km, 35.4° (Epoch: 01 April)

Date Brightness Start Highest point End Pass type
(mag) Time Alt. Az. Time Alt. Az. Time Alt. Az.
02 Apr ? 19:05:34 10° SSW 19:07:32 14° S 19:09:31 10° SE visible
02 Apr ? 20:43:24 10° SW 20:43:53 12° SW 20:43:53 12° SW visible
03 Apr ? 20:05:32 10° SW 20:07:49 16° S 20:08:03 16° S visible
04 Apr ? 19:27:42 10° SW 19:30:00 16° S 19:32:10 10° SE visible
05 Apr ? 20:29:14 10° SSW 20:29:53 11° SSW 20:29:53 11° SSW visible
06 Apr ? 19:51:04 10° SW 19:52:22 12° SSW 19:53:41 10° S visible
07 Apr ? 19:13:00 10° SW 19:14:33 12° SSW 19:16:07 10° SSE visible
